Home > Weather > Saint-Denis > Past weeks

Flag for Réunion (French) Past Weather in Saint-Denis, Réunion (French) — Yesterday and Last 2 Weeks

Now
68 °F

Rain. Fog.


Feels Like: 68 °F
Forecast: 70 / 79 °F
Wind: 10 mph from Southeast

Location: Saint-Denis / Gillot

Current Time: May 26, 2016 at 8:47:11 AM

Latest Report: May 26, 2016 at 8:00 AM


Visibility: 3 mi

Pressure: 30.12 "Hg

Humidity: 94%

Dew Point: 66 °F

Location of Saint-DenisLocation

Past Weather in Saint-Denis — Graph

°F

Saint-Denis Temperature Yesterday

Maximum temperature yesterday: 79 °F (at 10:00 AM)
Minimum temperature yesterday: 68 °F (at 2:30 AM)
Average temperature yesterday: 73 °F

High & Low Weather Summary for the Past Weeks

 TemperatureHumidityPressure
High82 °F (May 12, 1:30 PM)94% (May 16, 11:30 PM)30.27 "Hg (May 16, 11:30 PM)
Low59 °F (May 23, 4:30 AM)39% (May 21, 2:00 PM)29.92 "Hg (May 17, 2:30 PM)
Average73 °F66%30.09 "Hg
* Reported May 11 7:00 AM — May 26 7:30 AM, Saint-Denis, Weather by CustomWeather, © 2016

Note: Actual official high and low records may vary slightly from our data, if they occured in-between our weather recording intervals... More about our weather records

Advertising

Saint-Denis Weather History for the Previous 24 Hours

Scroll right to see more
 ConditionsComfort  
Time TempWeatherWind HumidityBarometerVisibility
7:30 AM
Thu, May 26
68 °FBroken clouds.9 mph88%30.12 "HgN/A
7:00 AM66 °FLight rain. Broken clouds.17 mph94%30.12 "Hg5 mi
6:30 AM70 °FLight rain. Partly sunny.20 mph83%30.12 "HgN/A
6:00 AM72 °FPartly sunny.14 mph69%30.09 "HgN/A
5:30 AM70 °FPassing clouds.13 mph69%30.09 "HgN/A
5:00 AM72 °FClear.15 mph69%30.09 "HgN/A
4:30 AM70 °FPassing clouds.14 mph73%30.09 "HgN/A
4:00 AM70 °FMostly cloudy.10 mph78%30.09 "HgN/A
3:30 AM68 °FOvercast.14 mph83%30.09 "HgN/A
3:00 AM68 °FLight rain. Mostly cloudy.12 mph83%30.12 "HgN/A
2:30 AM70 °FMostly cloudy.15 mph78%30.12 "HgN/A
2:00 AM70 °FMostly cloudy.8 mph73%30.12 "HgN/A
1:30 AM70 °FOvercast.10 mph78%30.12 "HgN/A
1:00 AM66 °FPartly cloudy.3 mph88%30.12 "HgN/A
12:30 AM68 °FRain. Passing clouds.17 mph88%30.15 "Hg6 mi
12:00 AM70 °FMostly cloudy.14 mph78%30.15 "HgN/A
11:30 PM
Wed, May 25
68 °FOvercast.10 mph83%30.15 "HgN/A
11:00 PM68 °FLight rain. Partly cloudy.21 mph83%30.18 "Hg4 mi
10:30 PM72 °FPassing clouds.14 mph61%30.15 "HgN/A
10:00 PM72 °FPassing clouds.15 mph65%30.15 "HgN/A
9:30 PM72 °FPartly cloudy.12 mph65%30.15 "HgN/A
9:00 PM72 °FClear.13 mph65%30.15 "HgN/A
8:30 PM72 °FPassing clouds.15 mph65%30.15 "HgN/A
8:00 PM72 °FPassing clouds.16 mph69%30.15 "HgN/A
7:30 PM72 °FPassing clouds.15 mph65%30.15 "HgN/A
7:00 PM72 °FPassing clouds.15 mph65%30.15 "HgN/A
6:30 PM72 °FPassing clouds.14 mph69%30.15 "HgN/A
6:00 PM73 °FPassing clouds.16 mph69%30.15 "HgN/A
5:30 PM73 °FPassing clouds.21 mph69%30.12 "HgN/A
5:00 PM75 °FPassing clouds.20 mph61%30.12 "HgN/A
4:30 PM77 °FScattered clouds.20 mph54%30.12 "HgN/A
4:00 PM77 °FScattered clouds.22 mph57%30.12 "HgN/A
3:30 PM77 °FScattered clouds.22 mph57%30.12 "HgN/A
3:00 PM79 °FScattered clouds.24 mph51%30.12 "HgN/A
2:30 PM79 °FPassing clouds.28 mph51%30.12 "HgN/A
2:05 PM79 °FPassing clouds.25 mph51%30.12 "HgN/A
1:30 PM79 °FPassing clouds.25 mph51%30.12 "HgN/A
1:06 PM79 °FPassing clouds.26 mph51%30.15 "HgN/A
12:30 PM79 °FPassing clouds.24 mph54%30.15 "HgN/A
12:00 PM79 °FPassing clouds.25 mph48%30.18 "HgN/A
11:30 AM79 °FPassing clouds.25 mph48%30.18 "HgN/A
11:00 AM79 °FPassing clouds.23 mph51%30.18 "HgN/A
10:30 AM79 °FPassing clouds.24 mph48%30.21 "HgN/A
10:00 AM79 °FPassing clouds.22 mph51%30.21 "HgN/A
9:30 AM77 °FScattered showers. Scattered clouds.23 mph54%30.21 "HgN/A
9:00 AM75 °FScattered clouds.14 mph61%30.21 "HgN/A
8:30 AM73 °FScattered showers. Partly sunny.15 mph65%30.21 "HgN/A
8:00 AM72 °FScattered showers. Scattered clouds.18 mph61%30.18 "HgN/A
Weather by CustomWeather, © 2016

See weather overviewHow to use our weather pages